Theta_e
311 310 310 310 310 311 313 314 316 317 318 319 320 320 321 322 322 322 323 324 324 324 324 324 323 323 320 309 306 320 328 331 329 325 319 317 312 309 303 306 309 306 309 310 311 310 310
312 311 310 311 311 312 312 313 314 316 316 317 318 319 319 321 322 321 323 323 323 324 324 324 323 322 313 299 316 321 327 326 324 321 320 318 313 312 307 306 305 308 307 307 308 309 309
313 312 310 310 311 311 312 312 313 314 315 316 317 318 318 319 321 322 322 323 323 323 323 323 323 317 308 302 315 317 321 324 325 322 318 319 317 312 311 306 310 308 303 305 307 308 306
314 312 311 310 310 310 311 312 312 313 314 315 315 316 317 318 320 321 322 322 322 321 322 322 322 314 300 313 316 313 315 323 325 324 321 321 319 313 310 310 307 302 301 294 300 305 306
312 312 311 309 310 310 310 311 312 312 313 314 314 315 315 317 318 319 320 320 321 322 321 321 314 308 299 314 307 311 313 317 320 320 321 320 318 310 309 301 296 300 291 293 295 304 303
312 311 311 310 310 310 311 310 310 311 312 312 313 314 315 316 317 318 319 319 319 320 316 313 311 300 303 300 307 309 313 317 315 315 312 311 310 303 303 298 286 289 290 293 292 299 301
312 311 310 310 310 309 311 310 310 310 311 312 313 313 314 315 316 317 317 313 307 304 307 301 301 301 301 307 310 306 312 314 314 310 301 306 299 294 298 299 296 295 293 291 295 300 298
310 310 309 308 309 310 311 310 310 309 311 311 311 312 313 314 316 317 314 305 306 308 298 305 304 301 304 308 300 304 313 305 304 298 303 300 294 299 301 301 297 295 293 292 295 299 298
309 309 309 308 309 309 310 310 309 309 310 310 310 311 313 313 314 311 308 307 313 312 298 299 303 301 302 305 299 300 308 306 301 298 298 294 295 300 299 297 296 296 293 293 292 296 299
308 309 309 310 310 309 310 309 309 309 309 309 310 310 311 312 304 304 304 312 313 313 291 292 296 299 302 304 297 305 309 304 301 295 297 297 299 298 297 295 297 292 298 296 294 293 288
307 308 308 309 310 309 309 309 309 308 308 309 309 310 310 310 304 298 305 311 312 306 276 294 296 307 303 299 299 301 309 304 296 296 297 292 295 295 294 296 298 294 298 296 295 293 291
307 307 308 308 309 308 309 309 309 309 308 308 308 309 309 307 305 305 309 309 305 286 277 288 294 293 294 298 297 301 301 305 302 297 296 295 298 298 297 298 299 298 295 294 294 292 284
308 308 308 308 309 309 308 309 308 308 308 308 308 309 306 306 298 306 305 301 284 279 289 285 288 293 293 292 293 296 295 294 291 286 287 292 293 296 297 294 297 297 292 283 281 282 280
308 308 308 309 309 309 307 308 308 307 308 307 307 307 305 305 307 304 299 289 278 285 285 291 291 292 289 292 292 293 292 290 295 293 289 285 283 292 297 295 291 293 291 283 277 279 282
308 308 309 309 309 309 309 308 308 307 307 307 307 303 301 303 306 303 288 278 282 286 288 289 290 286 286 290 291 291 291 291 293 294 287 285 285 294 296 297 296 291 288 293 284 280 281
307 307 307 308 309 309 308 308 307 307 307 307 300 298 297 305 305 297 283 280 285 290 292 291 284 287 284 286 288 288 289 293 292 296 294 289 283 290 293 296 296 293 295 284 286 278 276
308 307 308 308 309 309 308 308 307 307 307 305 298 289 296 304 301 288 280 281 285 289 293 290 288 286 288 286 288 287 288 292 295 294 295 291 287 284 290 289 289 288 288 289 289 286 279
308 308 308 309 308 308 308 308 307 307 306 302 293 282 296 302 284 285 280 283 288 287 291 291 292 290 289 289 286 287 288 291 297 296 290 292 288 283 286 290 293 294 289 290 283 281 284
306 306 308 308 308 308 308 307 307 307 304 297 287 288 297 297 278 280 284 284 286 286 287 288 289 291 292 289 285 289 290 295 295 294 292 292 285 281 282 285 287 288 291 291 290 287 282
305 304 307 307 308 308 306 305 306 306 303 298 289 281 286 289 287 282 281 282 282 288 286 287 289 291 290 289 291 288 289 291 294 295 296 295 288 285 281 284 287 284 288 290 289 282 284
305 303 306 307 308 307 307 306 306 304 302 296 288 282 285 280 281 283 283 282 281 283 287 286 288 289 289 286 287 287 290 289 291 295 295 293 285 287 288 288 287 287 287 288 286 288 284
305 304 303 304 304 307 305 304 305 304 300 291 284 283 285 282 285 283 283 281 281 283 285 283 284 289 290 287 288 286 289 288 288 291 292 293 285 287 283 288 287 284 286 288 289 289 289
305 304 304 303 304 303 304 304 304 302 298 290 290 289 288 285 284 282 282 281 281 285 286 286 288 289 288 290 294 294 294 294 293 290 290 289 287 283 280 286 285 280 285 286 287 290 289
305 304 304 304 304 304 304 304 303 301 299 296 293 291 285 281 283 282 283 285 284 284 283 286 288 289 292 296 296 294 293 292 292 292 294 287 286 285 281 280 273 285 291 290 288 289 290
304 304 304 304 304 304 303 303 302 301 301 296 293 287 286 282 285 284 284 285 288 288 286 287 289 293 296 293 287 284 284 285 285 289 290 292 288 282 279 279 282 284 286 286 286 286 291
304 304 304 303 304 303 304 304 303 302 302 295 293 293 288 285 283 285 286 287 284 284 284 286 290 293 293 287 283 279 277 281 279 282 288 289 289 284 282 277 275 285 290 288 290 281 292
302 303 304 304 304 304 304 304 303 303 301 296 293 292 290 285 286 285 284 285 287 285 284 285 285 287 290 284 281 279 279 280 277 277 278 282 283 279 279 277 280 286 287 288 279 283 290
300 301 301 302 303 302 302 303 304 303 301 296 294 292 291 285 286 287 287 284 285 286 284 284 286 286 284 283 282 279 279 279 279 282 280 280 279 279 280 277 275 291 284 283 289 286 283
298 299 300 301 301 302 303 304 304 302 301 297 294 292 292 287 285 289 289 289 288 286 286 284 284 284 288 285 282 280 277 278 281 277 283 279 284 282 283 282 285 286 287 282 280 281 281
Wind_Speed
23 21 23 21 20 18 14 14 14 12 9 13 12 11 11 11 13 11 15 15 13 12 9 8 7 6 3 6 5 4 8 4 7 8 9 8 8 5 8 5 4 6 4 4 4 3 3
27 21 22 22 21 18 16 15 14 13 9 7 10 12 12 12 13 15 13 15 14 13 11 9 8 6 4 11 3 2 2 2 5 10 8 5 6 3 4 5 9 4 3 2 1 4 3
26 25 25 24 22 18 15 17 16 15 11 8 6 11 12 13 12 13 14 13 16 14 12 12 10 5 6 11 2 5 4 1 6 5 8 3 3 5 7 6 4 5 7 1 5 5 5
22 24 24 22 23 21 20 18 17 17 13 10 8 6 10 13 14 12 11 10 13 15 13 12 11 5 5 2 5 7 3 3 7 3 3 5 3 5 0 7 4 5 4 7 7 8 4
17 21 24 20 22 23 21 19 20 19 15 11 9 7 8 13 14 12 11 10 10 14 13 12 8 6 5 2 5 11 4 4 7 3 4 3 3 5 5 9 5 6 4 11 3 7 4
15 19 20 20 22 23 22 21 20 19 17 14 11 9 8 7 14 14 12 13 8 12 9 5 3 2 4 6 4 5 6 4 5 12 6 7 6 9 10 12 10 10 8 6 7 7 7
20 18 19 18 19 24 24 21 21 20 19 14 12 11 8 8 10 16 12 7 7 6 7 5 7 4 6 5 4 5 6 5 5 10 10 14 10 15 18 18 4 7 8 7 5 5 5
13 11 19 20 20 23 26 23 22 22 19 17 15 13 12 8 8 16 12 11 19 6 6 9 17 2 2 5 5 5 10 11 10 12 11 7 18 14 12 14 14 7 7 6 2 4 4
21 17 23 22 18 20 24 22 23 21 19 17 16 15 13 10 7 5 15 21 6 4 4 6 5 12 5 5 4 15 18 9 12 17 15 14 2 17 13 11 14 14 14 10 8 3 6
24 21 19 23 19 23 24 23 23 21 18 17 16 17 15 13 6 4 8 17 3 1 6 10 11 7 6 5 4 6 16 11 5 18 14 14 7 13 13 16 14 16 10 6 5 3 5
25 24 20 19 24 24 24 25 24 22 19 17 18 17 18 18 4 6 3 13 7 3 11 15 11 8 14 13 14 8 13 6 11 10 10 6 11 11 15 13 13 6 11 11 8 8 10
27 25 24 22 22 24 25 26 24 23 21 19 17 17 19 13 5 6 3 10 4 10 12 11 12 17 16 18 7 7 10 5 2 8 5 12 0 10 14 6 15 11 8 4 3 2 10
27 26 26 24 21 21 25 26 26 24 21 20 19 18 17 9 7 7 2 9 9 11 6 10 11 19 27 14 15 13 19 18 14 11 17 9 13 3 3 10 5 14 14 4 6 7 9
25 24 23 25 25 25 28 28 27 24 22 21 19 16 13 8 8 8 3 11 15 7 9 9 13 21 22 19 12 16 20 18 21 12 11 12 9 15 11 15 9 18 14 6 8 8 5
26 25 21 24 27 26 32 30 27 25 23 20 18 6 6 7 11 7 2 8 8 6 12 15 16 24 11 14 10 16 23 24 22 21 14 12 15 4 11 7 16 9 15 12 2 2 3
26 27 22 19 27 28 31 30 27 25 22 24 8 7 5 9 11 6 4 4 3 2 12 21 13 16 13 21 16 21 19 20 20 23 7 6 4 2 13 6 10 10 10 6 6 9 9
28 31 23 17 28 29 29 29 28 24 26 25 7 6 1 9 5 0 3 5 2 5 7 18 15 8 16 13 18 16 13 7 26 22 17 7 3 3 7 16 20 9 13 8 5 9 9
31 38 3 18 28 28 28 30 29 29 30 15 5 4 2 8 6 3 6 4 5 3 7 8 8 9 15 20 16 18 21 20 21 19 24 15 6 9 13 1 9 18 17 19 10 9 11
33 38 14 21 24 28 28 31 30 32 26 8 6 4 2 6 7 7 3 1 4 4 7 5 11 9 12 18 13 18 17 12 13 21 18 16 7 5 5 5 2 11 17 18 18 3 14
30 34 14 17 24 30 34 33 33 32 24 6 5 5 2 5 1 9 10 6 3 6 7 6 3 5 14 17 9 18 16 7 10 20 10 19 10 15 17 14 11 11 17 20 18 9 20
25 29 33 12 29 32 34 32 33 27 20 6 2 4 3 8 11 11 14 11 16 8 9 6 4 9 15 11 16 10 18 9 6 10 14 13 9 18 21 17 9 18 21 20 23 29 21
23 24 27 30 26 29 29 28 27 23 12 5 5 3 2 0 4 15 15 16 21 17 3 5 10 18 17 10 15 16 18 12 13 9 17 9 8 10 15 20 20 17 13 20 29 27 24
21 20 20 23 26 26 27 27 25 19 8 3 2 2 2 4 5 12 18 20 22 18 8 7 10 12 14 14 18 9 11 7 7 15 19 14 12 7 15 17 17 14 26 25 21 25 25
19 18 16 18 20 21 23 24 22 16 7 3 2 2 2 8 15 20 21 20 21 24 19 21 11 8 4 11 12 9 2 1 8 10 10 13 15 11 12 3 17 15 20 25 29 26 24
17 16 14 17 16 19 21 20 18 15 9 3 3 3 4 4 3 11 18 21 9 10 8 9 11 5 12 5 4 6 2 2 4 4 9 13 12 8 11 15 14 4 11 16 19 27 27
26 14 14 17 19 18 16 17 15 13 12 3 0 2 2 3 1 3 12 12 10 3 5 2 3 2 3 3 3 6 6 3 5 4 5 7 8 10 5 8 15 12 17 0 5 13 21
21 25 10 14 9 13 14 14 12 10 12 3 1 3 2 1 3 5 1 6 6 4 3 3 5 2 1 4 2 4 6 4 8 9 8 5 7 12 14 9 3 11 4 4 9 11 11
18 17 16 13 5 2 1 5 9 6 6 7 2 1 2 3 3 5 5 1 4 4 5 3 4 2 1 6 6 6 6 9 5 8 10 14 9 8 8 7 13 12 6 12 13 2 2
16 13 12 12 10 8 9 10 8 2 5 3 2 1 2 5 0 1 2 5 5 3 3 2 2 4 4 3 3 2 4 3 6 7 5 9 14 12 9 6 2 9 7 7 6 4 2
Wind_Direction
255 245 254 255 259 253 253 262 261 239 226 220 208 210 203 197 177 209 201 195 183 181 187 180 173 181 179 199 235 350 337 14 157 167 196 184 185 173 198 174 158 210 165 153 123 155 182
248 242 248 248 253 243 235 248 255 244 212 206 210 204 205 200 188 187 211 197 188 182 180 175 168 156 206 220 73 326 21 86 144 169 180 192 203 187 153 179 208 158 142 117 128 179 229
249 240 237 243 239 252 245 234 242 241 213 176 186 208 199 200 197 191 191 189 189 184 176 174 158 150 205 216 139 29 13 263 164 174 167 179 165 205 148 150 123 126 159 215 223 223 235
243 238 240 230 238 239 241 231 232 237 220 182 172 202 212 196 200 194 184 195 184 186 178 169 154 159 229 248 255 282 315 137 144 113 170 126 141 105 130 122 114 170 199 215 202 224 207
249 244 238 230 240 234 236 228 227 222 226 197 176 192 223 206 192 193 189 184 193 180 161 147 142 185 230 122 203 221 217 201 142 81 117 127 203 171 149 176 177 195 194 214 217 204 183
266 242 239 241 232 235 227 228 224 217 219 207 196 193 212 231 198 185 194 159 200 133 117 65 71 130 218 206 168 170 182 249 154 153 141 188 201 191 194 191 208 199 210 200 202 176 214
292 243 244 245 238 233 230 220 217 213 213 203 205 202 204 217 216 189 167 133 162 175 206 165 154 252 132 125 134 171 156 159 150 178 178 183 203 203 197 205 214 218 216 208 177 183 219
324 263 255 251 253 241 219 213 211 216 211 202 202 206 210 201 220 197 173 196 197 103 167 179 169 232 118 165 127 143 163 189 189 197 176 184 220 211 201 202 208 196 199 201 196 181 243
319 266 267 247 242 222 208 205 208 208 205 202 201 200 205 199 177 216 197 197 179 164 180 179 185 180 177 175 184 174 174 181 203 199 200 211 293 205 187 186 200 224 236 244 257 327 234
311 300 272 249 233 214 210 208 207 210 211 206 202 202 190 178 176 175 228 188 122 250 216 181 182 215 147 197 197 160 183 172 189 211 201 230 194 196 196 203 198 224 207 204 188 270 257
301 295 282 270 237 213 211 210 203 205 209 207 200 203 199 179 147 166 259 155 135 77 224 170 163 155 161 186 130 182 176 181 187 179 190 187 189 189 210 208 197 211 163 197 219 246 282
293 282 272 267 246 225 206 205 203 198 199 202 202 199 195 203 176 136 186 151 114 201 209 167 146 166 165 191 159 126 166 180 150 185 237 231 54 217 214 178 192 146 116 89 135 227 251
294 284 260 249 238 220 212 203 198 196 193 195 195 199 192 190 198 153 247 154 212 211 155 168 171 169 180 171 163 174 175 185 183 184 211 188 211 181 174 174 151 173 171 181 198 204 245
311 294 271 239 228 215 211 196 193 189 187 188 190 191 204 189 133 129 174 198 210 146 168 167 164 173 187 150 185 187 171 192 209 209 187 198 199 193 181 204 183 199 188 190 203 212 229
321 316 273 242 214 210 193 188 186 183 180 180 173 172 167 195 155 125 167 235 205 143 158 158 161 169 183 180 150 175 196 200 196 199 201 202 218 205 183 180 184 180 216 215 301 80 245
330 321 310 243 204 194 183 175 177 178 176 167 146 163 170 173 152 158 199 221 269 211 172 159 164 175 171 173 170 181 184 206 202 202 219 187 195 168 179 183 223 204 164 178 200 223 232
331 324 296 244 189 176 174 172 172 170 160 145 135 149 78 148 119 198 244 213 303 308 228 178 169 152 183 174 183 183 194 180 200 192 194 166 220 125 156 203 194 185 203 215 215 223 230
348 342 182 159 162 163 167 164 161 158 148 135 109 126 197 144 176 208 227 283 343 6 282 232 191 163 178 164 190 190 198 204 200 179 196 199 206 211 202 88 257 217 211 203 203 200 242
11 11 106 137 153 162 157 152 156 150 145 123 103 95 204 178 199 197 132 316 240 260 278 246 206 185 175 173 176 191 203 194 190 190 189 174 203 182 199 219 227 222 215 221 229 269 216
27 22 39 137 147 150 145 155 152 145 141 93 109 144 170 199 308 198 178 195 202 238 252 298 208 149 170 183 196 189 201 189 189 198 180 166 203 220 229 229 172 211 212 213 216 222 235
38 43 33 86 139 144 147 147 141 143 136 90 80 184 201 195 205 189 193 205 212 210 222 167 207 226 166 174 185 187 192 173 194 195 179 181 223 219 242 250 240 226 214 210 215 228 230
39 59 62 67 67 143 124 125 138 142 118 76 130 138 156 9 160 200 198 203 206 217 107 248 236 193 197 173 187 189 182 186 184 187 190 196 233 213 242 239 233 242 234 218 216 227 235
43 54 82 91 99 124 140 151 148 137 86 93 104 97 131 197 193 193 206 213 218 212 196 178 257 179 199 198 194 189 190 211 177 174 186 179 216 188 239 240 238 232 227 229 228 227 229
37 47 80 95 116 133 135 143 142 150 93 110 134 118 189 257 207 208 205 198 220 211 208 210 245 193 167 115 93 69 76 193 196 204 195 189 205 221 241 155 232 237 233 223 228 232 232
25 35 73 102 119 119 135 146 155 163 172 136 132 166 209 255 212 212 203 200 221 169 178 161 203 186 160 148 121 142 154 182 199 204 214 228 192 224 230 229 258 263 230 208 207 233 234
27 32 94 120 104 121 140 161 177 193 194 98 201 221 209 272 359 329 161 181 193 138 95 135 342 225 139 85 154 175 178 133 182 196 240 220 220 215 205 226 235 245 261 79 185 244 242
27 28 57 144 110 81 102 124 142 162 175 158 195 211 215 106 341 0 132 148 123 96 109 144 142 236 297 138 149 192 216 183 176 188 181 203 223 230 255 268 248 252 221 178 206 243 278
24 25 34 25 353 0 302 78 62 61 141 187 154 208 200 102 12 344 336 207 168 172 157 128 123 163 92 177 180 183 209 202 188 218 182 184 188 202 220 233 252 195 105 202 221 236 294
18 20 18 11 9 3 301 285 295 316 34 58 14 47 13 77 76 259 3 17 31 48 125 204 94 149 158 164 219 131 187 177 204 231 161 213 209 215 207 221 154 193 221 171 155 200 240